Tracking 25949 objects as of 8-Aug-2022
HD Live streaming from Space Station
objects crossing your sky now

STARLINK-1591

Track STARLINK-1591 now!
10-day predictions
STARLINK-1591 is classified as:


NORAD ID: 46045
Int'l Code: 2020-055U
Perigee: 553.4 km
Apogee: 555.3 km
Inclination: 53.1 °
Period: 95.6 minutes
Semi major axis: 6925 km
RCS: Unknown
Launch date: August 7, 2020
Source: United States (US)
Launch site: AIR FORCE EASTERN TEST RANGE (AFETR)
aabbcc
Your satellite tracking list
Your tracking list is empty




NASA's NSSDC Master Catalog

Two Line Element Set (TLE):
1 46045U 20055U   22220.42797641 -.00000470  00000-0 -12672-4 0  9994
2 46045  53.0542 244.1239 0001342  70.4806 289.6327 15.06402094111045
Source of the keplerian elements: AFSPC